| time (UTC) | temp C | wind direction | speed KPH | gust KPH | rain 1hr cm | rain 24hr cm | rain mn cm | humidity % | barometer mb |
| 20260509150021 | 16 | 294 | 4.8 | 11.3 | 0.00 | 0.00 | 0.00 | 76 | 1005.3 |
| 20260509145016 | 16 | 298 | 6.4 | 14.5 | 0.00 | 0.00 | 0.00 | 77 | 1005.4 |
| 20260509144016 | 16 | 299 | 6.4 | 12.9 | 0.00 | 0.00 | 0.00 | 77 | 1005.4 |
| 20260509143016 | 16 | 302 | 6.4 | 12.9 | 0.00 | 0.00 | 0.00 | 79 | 1005.3 |
| 20260509142016 | 15 | 304 | 6.4 | 12.9 | 0.00 | 0.00 | 0.00 | 81 | 1005.4 |
| 20260509141017 | 15 | 299 | 3.2 | 9.7 | 0.00 | 0.00 | 0.00 | 82 | 1005.3 |
| 20260509140017 | 15 | 293 | 3.2 | 11.3 | 0.00 | 0.00 | 0.00 | 83 | 1005.2 |
| 20260509135017 | 14 | 290 | 3.2 | 9.7 | 0.00 | 0.00 | 0.00 | 84 | 1005.2 |
| 20260509134017 | 13 | 296 | 3.2 | 9.7 | 0.00 | 0.00 | 0.00 | 86 | 1005.3 |
| 20260509133037 | 13 | 286 | 1.6 | 8.0 | 0.00 | 0.00 | 0.00 | 88 | 1005.4 |
| 20260509132058 | 12 | 290 | 3.2 | 8.0 | 0.00 | 0.00 | 0.00 | 91 | 1005.4 |
| 20260509131018 | 12 | 291 | 1.6 | 8.0 | 0.00 | 0.00 | 0.00 | 92 | 1005.5 |
| 20260509130017 | 12 | 277 | 1.6 | 6.4 | 0.00 | 0.00 | 0.00 | 94 | 1005.4 |
| 20260509125017 | 11 | 281 | 1.6 | 6.4 | 0.00 | 0.00 | 0.00 | 95 | 1005.3 |
| 20260509124018 | 11 | 291 | 1.6 | 6.4 | 0.00 | 0.00 | 0.00 | 98 | 1005.5 |
| 20260509123027 | 10 | 275 | 1.6 | 3.2 | 0.00 | 0.00 | 0.00 | 99 | 1005.5 |
| 20260509122027 | 10 | 221 | 1.6 | 4.8 | 0.00 | 0.00 | 0.00 | 100 | 1005.5 |
| 20260509121049 | 10 | 291 | 1.6 | 3.2 | 0.00 | 0.00 | 0.00 | 99 | 1005.4 |
| 20260509120018 | 10 | 291 | 1.6 | 11.3 | 0.00 | 0.00 | 0.00 | 99 | 1005.4 |
| 20260509115028 | 9 | 290 | 1.6 | 4.8 | 0.00 | 0.00 | 0.00 | 99 | 1004.9 |
| 20260509114108 | 9 | 206 | 0.0 | 1.6 | 0.00 | 0.00 | 0.00 | 99 | 1004.6 |
| 20260509113028 | 9 | 329 | 0.0 | 3.2 | 0.00 | 0.00 | 0.00 | 99 | 1004.4 |
| 20260509112028 | 9 | 285 | 1.6 | 6.4 | 0.00 | 0.00 | 0.00 | 99 | 1004.5 |
| 20260509111029 | 9 | 188 | 0.0 | 3.2 | 0.00 | 0.00 | 0.00 | 99 | 1004.6 |
| 20260509110049 | 9 | 169 | 0.0 | 1.6 | 0.00 | 0.03 | 0.00 | 99 | 1004.6 |
| 20260509105028 | 9 | 178 | 0.0 | 4.8 | 0.00 | 0.03 | 0.00 | 99 | 1004.7 |
| 20260509104029 | 9 | 272 | 1.6 | 3.2 | 0.00 | 0.03 | 0.00 | 99 | 1004.9 |
| 20260509103029 | 9 | 15 | 0.0 | 3.2 | 0.00 | 0.03 | 0.00 | 99 | 1004.8 |
| 20260509102029 | 9 | 300 | 0.0 | 3.2 | 0.00 | 0.03 | 0.00 | 99 | 1004.9 |
| 20260509101029 | 9 | 303 | 0.0 | 3.2 | 0.00 | 0.03 | 0.00 | 99 | 1005.1 |
| 20260509100030 | 9 | 188 | 0.0 | 1.6 | 0.00 | 0.03 | 0.00 | 100 | 1005.1 |
| 20260509095030 | 9 | 88 | 0.0 | 3.2 | 0.00 | 0.03 | 0.00 | 100 | 1005.1 |
| 20260509094030 | 8 | 54 | 0.0 | 4.8 | 0.00 | 0.03 | 0.00 | 100 | 1005.2 |
| 20260509093030 | 8 | 331 | 0.0 | 1.6 | 0.00 | 0.03 | 0.00 | 99 | 1005.3 |
| 20260509092016 | 8 | 0.0 | 0.0 | 0.00 | 0.03 | 0.00 | 99 | 1005.3 | |
| 20260509091015 | 8 | 0.0 | 0.0 | 0.00 | 0.03 | 0.00 | 99 | 1005.3 | |
| 20260509090016 | 9 | 0.0 | 0.0 | 0.00 | 0.03 | 0.00 | 99 | 1005.3 | |
| 20260509085016 | 9 | 0.0 | 0.0 | 0.00 | 0.03 | 0.00 | 98 | 1005.4 | |
| 20260509084016 | 9 | 107 | 0.0 | 1.6 | 0.00 | 0.03 | 0.00 | 98 | 1005.3 |
| 20260509083016 | 10 | 0.0 | 0.0 | 0.00 | 0.03 | 0.00 | 98 | 1005.3 | |
| 20260509082016 | 10 | 347 | 0.0 | 1.6 | 0.00 | 0.03 | 0.00 | 98 | 1005.2 |
| 20260509081036 | 10 | 0.0 | 0.0 | 0.00 | 0.03 | 0.00 | 98 | 1005.3 | |
| 20260509080017 | 10 | 0.0 | 0.0 | 0.00 | 0.03 | 0.00 | 98 | 1005.4 | |
| 20260509075016 | 10 | 0.0 | 0.0 | 0.00 | 0.03 | 0.00 | 97 | 1005.4 | |
| 20260509074016 | 10 | 284 | 0.0 | 3.2 | 0.00 | 0.03 | 0.00 | 97 | 1005.4 |
| 20260509073016 | 10 | 311 | 0.0 | 1.6 | 0.00 | 0.03 | 0.00 | 96 | 1005.6 |
| 20260509072016 | 10 | 305 | 0.0 | 1.6 | 0.00 | 0.03 | 0.00 | 96 | 1005.7 |
| 20260509071017 | 10 | 304 | 0.0 | 1.6 | 0.00 | 0.03 | 0.00 | 95 | 1005.7 |
| 20260509070017 | 10 | 328 | 0.0 | 1.6 | 0.00 | 0.03 | 0.00 | 95 | 1005.8 |
| 20260509065017 | 11 | 314 | 1.6 | 3.2 | 0.00 | 0.03 | 0.00 | 94 | 1006.0 |
| 20260509064017 | 11 | 0.0 | 0.0 | 0.00 | 0.03 | 0.00 | 93 | 1006.0 | |
| 20260509063017 | 11 | 320 | 0.0 | 4.8 | 0.00 | 0.03 | 0.00 | 93 | 1006.0 |
| 20260509062017 | 11 | 0.0 | 0.0 | 0.00 | 0.03 | 0.00 | 93 | 1006.1 | |
| 20260509061018 | 11 | 0.0 | 0.0 | 0.00 | 0.03 | 0.00 | 92 | 1006.3 | |
| 20260509060018 | 11 | 310 | 1.6 | 4.8 | 0.00 | 0.03 | 0.00 | 91 | 1006.5 |
| 20260509055018 | 11 | 263 | 0.0 | 3.2 | 0.00 | 0.03 | 0.00 | 90 | 1006.5 |
| 20260509054018 | 11 | 311 | 1.6 | 3.2 | 0.00 | 0.03 | 0.00 | 90 | 1006.5 |
| 20260509053019 | 11 | 298 | 1.6 | 3.2 | 0.00 | 0.03 | 0.00 | 90 | 1006.4 |
| 20260509052018 | 12 | 312 | 0.0 | 1.6 | 0.00 | 0.03 | 0.00 | 89 | 1006.5 |
| 20260509051019 | 12 | 317 | 0.0 | 3.2 | 0.00 | 0.03 | 0.00 | 89 | 1006.5 |
| 20260509050059 | 12 | 249 | 0.0 | 3.2 | 0.00 | 0.03 | 0.00 | 89 | 1006.5 |
| 20260509045019 | 12 | 0.0 | 0.0 | 0.00 | 0.03 | 0.03 | 89 | 1006.6 | |
| 20260509044019 | 12 | 323 | 0.0 | 1.6 | 0.00 | 0.03 | 0.03 | 89 | 1006.7 |
| 20260509043019 | 12 | 275 | 0.0 | 3.2 | 0.00 | 0.03 | 0.03 | 89 | 1006.6 |
| 20260509042020 | 12 | 109 | 0.0 | 4.8 | 0.00 | 0.03 | 0.03 | 88 | 1006.6 |
| 20260509041040 | 12 | 279 | 0.0 | 3.2 | 0.00 | 0.03 | 0.03 | 87 | 1006.8 |
| 20260509040040 | 12 | 250 | 0.0 | 4.8 | 0.00 | 0.03 | 0.03 | 86 | 1006.9 |
| 20260509035022 | 12 | 256 | 0.0 | 3.2 | 0.00 | 0.03 | 0.03 | 85 | 1006.9 |
| 20260509034019 | 13 | 150 | 0.0 | 4.8 | 0.00 | 0.03 | 0.03 | 84 | 1007.0 |
| 20260509033036 | 13 | 303 | 0.0 | 3.2 | 0.00 | 0.03 | 0.03 | 83 | 1006.9 |
| 20260509032017 | 13 | 307 | 0.0 | 3.2 | 0.00 | 0.03 | 0.03 | 82 | 1006.9 |
| 20260509031016 | 13 | 269 | 1.6 | 4.8 | 0.00 | 0.03 | 0.03 | 80 | 1006.9 |
| 20260509030017 | 13 | 266 | 0.0 | 1.6 | 0.00 | 0.03 | 0.03 | 78 | 1006.9 |
| 20260509025017 | 14 | 299 | 0.0 | 4.8 | 0.00 | 0.03 | 0.03 | 77 | 1006.9 |
| 20260509024017 | 14 | 279 | 0.0 | 4.8 | 0.00 | 0.03 | 0.03 | 75 | 1007.0 |
| 20260509023038 | 14 | 294 | 1.6 | 3.2 | 0.00 | 0.03 | 0.03 | 74 | 1007.0 |
| 20260509022017 | 15 | 264 | 1.6 | 4.8 | 0.00 | 0.03 | 0.03 | 74 | 1007.0 |
| 20260509021017 | 15 | 299 | 1.6 | 4.8 | 0.00 | 0.03 | 0.03 | 74 | 1006.9 |
| 20260509020018 | 15 | 291 | 1.6 | 6.4 | 0.00 | 0.03 | 0.03 | 73 | 1006.8 |
| 20260509015018 | 15 | 271 | 1.6 | 6.4 | 0.00 | 0.03 | 0.03 | 73 | 1006.6 |
| 20260509014018 | 15 | 295 | 1.6 | 6.4 | 0.00 | 0.03 | 0.03 | 73 | 1006.5 |
| 20260509013015 | 15 | 251 | 1.6 | 8.0 | 0.00 | 0.03 | 0.03 | 72 | 1006.5 |
| 20260509012016 | 16 | 287 | 3.2 | 11.3 | 0.00 | 0.03 | 0.03 | 71 | 1006.4 |
| 20260509011016 | 16 | 248 | 0.0 | 4.8 | 0.00 | 0.03 | 0.03 | 68 | 1006.5 |
| 20260509010016 | 16 | 254 | 0.0 | 4.8 | 0.00 | 0.03 | 0.03 | 67 | 1006.4 |
| 20260509005016 | 16 | 302 | 0.0 | 3.2 | 0.00 | 0.03 | 0.03 | 65 | 1006.5 |
| 20260509004037 | 17 | 270 | 0.0 | 4.8 | 0.00 | 0.03 | 0.03 | 62 | 1006.4 |
| 20260509003016 | 17 | 293 | 1.6 | 4.8 | 0.00 | 0.03 | 0.03 | 59 | 1006.4 |
| 20260509002017 | 17 | 291 | 1.6 | 6.4 | 0.00 | 0.03 | 0.03 | 59 | 1006.3 |
| 20260509001017 | 18 | 300 | 1.6 | 6.4 | 0.00 | 0.03 | 0.03 | 58 | 1006.4 |
| 20260509000017 | 18 | 292 | 1.6 | 6.4 | 0.00 | 0.03 | 0.03 | 58 | 1006.4 |
| 20260508235017 | 18 | 274 | 1.6 | 8.0 | 0.00 | 0.03 | 0.03 | 58 | 1006.4 |
| 20260508234018 | 18 | 286 | 3.2 | 8.0 | 0.00 | 0.05 | 0.03 | 57 | 1006.4 |
| 20260508233037 | 19 | 274 | 3.2 | 8.0 | 0.00 | 0.05 | 0.03 | 57 | 1006.5 |
| 20260508232038 | 20 | 270 | 3.2 | 8.0 | 0.00 | 0.05 | 0.03 | 57 | 1006.5 |
| 20260508231018 | 19 | 280 | 1.6 | 9.7 | 0.00 | 0.05 | 0.03 | 59 | 1006.5 |
| 20260508230018 | 19 | 284 | 3.2 | 8.0 | 0.00 | 0.05 | 0.03 | 59 | 1006.6 |
| 20260508225036 | 20 | 283 | 3.2 | 9.7 | 0.00 | 0.05 | 0.03 | 58 | 1006.6 |
| 20260508224036 | 19 | 295 | 3.2 | 9.7 | 0.00 | 0.05 | 0.03 | 58 | 1006.7 |
| 20260508223016 | 19 | 284 | 3.2 | 8.0 | 0.00 | 0.05 | 0.03 | 57 | 1006.7 |
| 20260508222016 | 19 | 294 | 4.8 | 9.7 | 0.00 | 0.05 | 0.03 | 58 | 1006.7 |
| 20260508221016 | 20 | 303 | 4.8 | 11.3 | 0.00 | 0.05 | 0.03 | 55 | 1006.7 |
| 20260508220016 | 20 | 292 | 6.4 | 12.9 | 0.00 | 0.05 | 0.03 | 54 | 1006.8 |
| 20260508215016 | 20 | 287 | 4.8 | 11.3 | 0.00 | 0.05 | 0.03 | 54 | 1006.7 |
| 20260508214017 | 20 | 283 | 3.2 | 9.7 | 0.00 | 0.05 | 0.03 | 55 | 1006.8 |
| 20260508213017 | 20 | 297 | 4.8 | 11.3 | 0.00 | 0.05 | 0.03 | 53 | 1006.8 |
| 20260508212017 | 20 | 297 | 4.8 | 14.5 | 0.00 | 0.05 | 0.03 | 53 | 1006.9 |
| 20260508211017 | 20 | 275 | 3.2 | 9.7 | 0.00 | 0.05 | 0.03 | 52 | 1007.0 |
| 20260508210017 | 20 | 271 | 1.6 | 6.4 | 0.00 | 0.05 | 0.03 | 55 | 1007.1 |
| 20260508205017 | 20 | 286 | 4.8 | 9.7 | 0.00 | 0.05 | 0.03 | 56 | 1007.1 |
| 20260508204017 | 20 | 309 | 0.0 | 3.2 | 0.00 | 0.05 | 0.03 | 59 | 1007.3 |
| 20260508203018 | 19 | 294 | 3.2 | 9.7 | 0.00 | 0.05 | 0.03 | 58 | 1007.3 |
| 20260508202018 | 19 | 271 | 1.6 | 6.4 | 0.00 | 0.05 | 0.03 | 57 | 1007.5 |
| 20260508201018 | 19 | 135 | 0.0 | 6.4 | 0.00 | 0.05 | 0.03 | 58 | 1007.7 |
| 20260508200018 | 18 | 290 | 1.6 | 6.4 | 0.00 | 0.05 | 0.03 | 58 | 1007.9 |
| 20260508195019 | 18 | 34 | 0.0 | 4.8 | 0.00 | 0.05 | 0.03 | 57 | 1008.0 |
| 20260508194016 | 19 | 289 | 1.6 | 4.8 | 0.00 | 0.05 | 0.03 | 58 | 1008.2 |
| 20260508193016 | 20 | 309 | 3.2 | 8.0 | 0.00 | 0.05 | 0.03 | 58 | 1008.2 |
| 20260508192016 | 19 | 280 | 1.6 | 6.4 | 0.00 | 0.05 | 0.03 | 59 | 1008.2 |
| 20260508191016 | 19 | 284 | 1.6 | 4.8 | 0.00 | 0.05 | 0.03 | 61 | 1008.3 |
| 20260508190018 | 18 | 295 | 1.6 | 8.0 | 0.00 | 0.05 | 0.03 | 61 | 1008.4 |
| 20260508185037 | 19 | 298 | 1.6 | 4.8 | 0.00 | 0.05 | 0.03 | 59 | 1008.6 |
| 20260508184017 | 19 | 273 | 1.6 | 8.0 | 0.00 | 0.05 | 0.03 | 57 | 1008.6 |
| 20260508183017 | 18 | 308 | 1.6 | 4.8 | 0.00 | 0.05 | 0.03 | 60 | 1008.8 |
| 20260508182037 | 18 | 282 | 3.2 | 8.0 | 0.00 | 0.05 | 0.03 | 60 | 1008.9 |
| 20260508181017 | 18 | 267 | 1.6 | 8.0 | 0.00 | 0.05 | 0.03 | 59 | 1009.0 |
| 20260508180017 | 18 | 290 | 1.6 | 4.8 | 0.00 | 0.05 | 0.03 | 60 | 1009.1 |
| 20260508175058 | 18 | 282 | 0.0 | 3.2 | 0.00 | 0.05 | 0.03 | 61 | 1009.2 |
| 20260508174018 | 18 | 298 | 0.0 | 6.4 | 0.00 | 0.05 | 0.03 | 62 | 1009.3 |
| 20260508173017 | 18 | 56 | 1.6 | 4.8 | 0.00 | 0.05 | 0.03 | 62 | 1009.5 |
| 20260508172018 | 17 | 299 | 1.6 | 8.0 | 0.00 | 0.05 | 0.03 | 63 | 1009.7 |
| 20260508171018 | 18 | 287 | 3.2 | 9.7 | 0.00 | 0.05 | 0.03 | 63 | 1009.8 |
| 20260508170018 | 17 | 137 | 1.6 | 8.0 | 0.00 | 0.05 | 0.03 | 66 | 1010.0 |
| 20260508165017 | 17 | 287 | 1.6 | 6.4 | 0.00 | 0.05 | 0.03 | 65 | 1010.1 |
| 20260508164016 | 17 | 286 | 0.0 | 3.2 | 0.00 | 0.05 | 0.03 | 66 | 1010.3 |
| 20260508163016 | 17 | 166 | 1.6 | 6.4 | 0.00 | 0.05 | 0.03 | 68 | 1010.5 |
| 20260508162016 | 17 | 294 | 1.6 | 4.8 | 0.00 | 0.05 | 0.03 | 67 | 1010.6 |
| 20260508161016 | 17 | 281 | 0.0 | 4.8 | 0.00 | 0.05 | 0.03 | 68 | 1010.5 |
| 20260508160016 | 16 | 190 | 1.6 | 6.4 | 0.00 | 0.05 | 0.03 | 68 | 1010.6 |
| 20260508155017 | 16 | 294 | 0.0 | 4.8 | 0.00 | 0.05 | 0.03 | 71 | 1010.7 |
| 20260508154037 | 16 | 276 | 1.6 | 6.4 | 0.00 | 0.05 | 0.03 | 71 | 1010.8 |
| 20260508153017 | 16 | 114 | 1.6 | 6.4 | 0.00 | 0.05 | 0.03 | 71 | 1010.8 |
| 20260508152037 | 16 | 316 | 0.0 | 4.8 | 0.00 | 0.05 | 0.03 | 71 | 1011.0 |
| 20260508151017 | 16 | 273 | 0.0 | 4.8 | 0.00 | 0.05 | 0.03 | 72 | 1010.9 |